Flag for India Weather past 2 weeks in Amritsar, Punjab, India

Now
75 °F

Fog.


Feels Like: 75 °F
Forecast: 65 / 77 °F
Wind: No wind

Location: Amritsar Airport

Current Time: Mar 29, 2015 at 12:46:05 AM

Latest Report: Mar 28, 2015 at 10:00 PM


Visibility: 2 mi

Pressure: 29.77 "Hg

Humidity: 83%

Dew point: 70 °F

Location of AmritsarLocation

Historic Weather in Amritsar — Graph

°F

Amritsar temperature yesterday

Maximum temperature yesterday: 90 °F (at 1:30 PM)
Minimum temperature yesterday: 63 °F (at 7:00 AM)
Average temperature yesterday: 79 °F

Past Weeks' High & Low Weather Summary

 TemperatureHumidityPressure
High90 °F (Mar 28, 1:30 PM)100% (Mar 14, 7:30 AM)30.15 "Hg (Mar 14, 7:30 AM)
Low52 °F (Mar 14, 7:30 AM)40% (Mar 28, 12:00 PM)29.74 "Hg (Mar 28, 6:00 PM)
Average69 °F79%29.97 "Hg
* Reported Mar 14 7:30 AM — Mar 28 10:00 PM, Amritsar, Weather by CustomWeather, © 2015

Note: Actual official high and low records may vary slightly from our data, if they occured in-between our weather recording intervals... More about our weather records

Advertising

Amritsar weather history for previous 24 hours

 ConditionsComfort  
Time TempWeatherWind HumidityBarometerVisibility
10:00 PM
Sat, Mar 28
75 °FFog.No wind83%29.77 "Hg2 mi
8:00 PM79 °FFog.No wind74%29.77 "Hg2 mi
7:30 PM81 °FPassing clouds.No wind70%29.74 "Hg2 mi
7:00 PM81 °FScattered clouds.No wind70%29.74 "Hg2 mi
6:00 PM86 °FScattered clouds.No wind59%29.74 "Hg2 mi
5:30 PM88 °FScattered clouds.No wind49%29.77 "Hg2 mi
4:00 PM90 °FScattered clouds.1 mph46%29.80 "Hg2 mi
3:30 PM90 °FScattered clouds.5 mph46%29.80 "Hg2 mi
2:30 PM90 °FScattered clouds.5 mph49%29.83 "Hg2 mi
2:00 PM90 °FScattered clouds.2 mph41%29.83 "Hg2 mi
1:30 PM90 °FScattered clouds.2 mph46%29.86 "Hg1 mi
1:00 PM88 °FScattered clouds.1 mph46%29.89 "Hg2 mi
12:00 PM86 °FScattered clouds.2 mph40%29.89 "Hg1 mi
11:30 AM84 °FScattered clouds.No wind55%29.89 "Hg1 mi
11:00 AM84 °FScattered clouds.No wind58%29.92 "Hg1 mi
8:30 AM73 °FFog.No wind78%29.89 "Hg1 mi
8:00 AM70 °FFog.No wind83%29.89 "Hg1 mi
7:30 AM64 °FFog.No wind94%29.86 "Hg1 mi
7:00 AM63 °FFog.No wind100%29.86 "Hg1 mi
4:00 AM64 °FFog.No wind94%29.86 "Hg1 mi
3:00 AM64 °FFog.No wind94%29.86 "Hg1 mi
2:30 AM66 °FFog.No wind88%29.89 "Hg1 mi
1:30 AM66 °FFog.No wind88%29.89 "Hg2 mi
Weather by CustomWeather, © 2015

See weather overviewHow to use our weather pages